This demonstration page uses our WeatherBlox Daily Observations layout. Learn more.

Left ArrowRight Arrow

Hourly Observations for January 2, 2020

Temp ( °F °C ) Dew Point ( °F °C ) Humidity (%) Winds ( mph kmh ) Pressure ( in mb ) Visibility ( mi km ) Precip ( " mm )
12:16 am 00:16 Clear 36 2 30 -1 81 81 S 9 15 29.8 1009 10 16.0934 N/A
12:35 am 00:35 Clear 36 2 30 -1 81 81 S 10 17 29.8 1009 10 16.0934 N/A
12:56 am 00:56 Clear 36 2 30 -1 81 81 S 8 13 29.79 1009 10 16.0934 N/A
1:16 am 01:16 Clear 34 1 30 -1 87 87 S 8 13 29.79 1009 10 16.0934 N/A
1:35 am 01:35 Clear 36 2 30 -1 81 81 S 9 15 29.79 1009 10 16.0934 N/A
1:56 am 01:56 Clear 36 2 30 -1 81 81 S 8 13 29.79 1009 10 16.0934 N/A
2:16 am 02:16 Mostly Cloudy 34 1 30 -1 87 87 S 7 11 29.79 1009 10 16.0934 N/A
2:36 am 02:36 Cloudy 36 2 30 -1 81 81 S 7 11 29.8 1009 10 16.0934 N/A
2:55 am 02:55 Cloudy 36 2 30 -1 81 81 S 7 11 29.79 1009 10 16.0934 N/A
3:15 am 03:15 Cloudy 36 2 30 -1 81 81 S 7 11 29.79 1009 10 16.0934 N/A
3:36 am 03:36 Cloudy 36 2 30 -1 81 81 S 9 15 29.77 1008 10 16.0934 N/A
3:55 am 03:55 Cloudy 36 2 30 -1 81 81 S 9 15 29.77 1008 10 16.0934 N/A
4:16 am 04:16 Cloudy 36 2 30 -1 81 81 S 8 13 29.77 1008 10 16.0934 N/A
4:36 am 04:36 Cloudy 36 2 30 -1 81 81 S 8 13 29.76 1008 10 16.0934 N/A
4:55 am 04:55 Cloudy 36 2 32 0 87 87 S 9 15 29.76 1008 10 16.0934 N/A
5:15 am 05:15 Cloudy 37 3 32 0 81 81 S 8 13 29.75 1008 10 16.0934 N/A
5:36 am 05:36 Cloudy 37 3 32 0 81 81 S 8 13 29.75 1008 10 16.0934 N/A
5:55 am 05:55 Cloudy 37 3 32 0 81 81 S 8 13 29.75 1008 10 16.0934 N/A
6:16 am 06:16 Cloudy 37 3 32 0 81 81 S 8 13 29.74 1007 10 16.0934 N/A
6:36 am 06:36 Cloudy 37 3 32 0 81 81 S 7 11 29.74 1007 10 16.0934 N/A
6:55 am 06:55 Cloudy 39 4 32 0 75 75 S 7 11 29.75 1007 10 16.0934 N/A
7:15 am 07:15 Partly Cloudy 37 3 32 0 81 81 S 7 11 29.75 1008 10 16.0934 N/A
7:35 am 07:35 Clear 37 3 32 0 81 81 S 7 11 29.75 1008 10 16.0934 N/A
7:55 am 07:55 Clear 37 3 32 0 81 81 S 7 11 29.75 1008 10 16.0934 N/A
8:15 am 08:15 Sunny 36 2 32 0 87 87 S 7 11 29.76 1008 10 16.0934 N/A
8:35 am 08:35 Sunny 36 2 32 0 87 87 S 7 11 29.76 1008 10 16.0934 N/A
8:56 am 08:56 Sunny 37 3 32 0 81 81 S 7 11 29.76 1008 10 16.0934 N/A
9:16 am 09:16 Sunny 37 3 34 1 87 87 S 8 13 29.76 1008 10 16.0934 N/A
9:35 am 09:35 Sunny 39 4 34 1 81 81 S 9 15 29.76 1008 10 16.0934 N/A
9:56 am 09:56 Sunny 41 5 34 1 76 76 S 8 13 29.78 1008 10 16.0934 N/A
10:15 am 10:15 Sunny 43 6 34 1 71 71 S 9 15 29.77 1008 10 16.0934 N/A
10:35 am 10:35 Sunny 45 7 36 2 71 71 S 10 17 29.78 1008 10 16.0934 N/A
10:55 am 10:55 Sunny 46 8 36 2 66 66 S 10 17 29.77 1008 10 16.0934 N/A
11:15 am 11:15 Sunny 46 8 37 3 71 71 S 8 13 29.76 1008 10 16.0934 N/A
11:35 am 11:35 Sunny 46 8 37 3 71 71 SSW 12 19 29.76 1008 10 16.0934 N/A
11:56 am 11:56 Sunny 48 9 39 4 71 71 SSW 12 19 29.74 1007 10 16.0934 N/A
12:15 pm 12:15 Sunny 50 10 39 4 67 67 SSW 12 19 29.73 1007 10 16.0934 N/A
12:36 pm 12:36 Partly Cloudy 52 11 41 5 67 67 SW 18 30 29.73 1007 10 16.0934 N/A
12:55 pm 12:55 Partly Cloudy 54 12 41 5 63 63 SW 16 26 29.71 1006 10 16.0934 N/A
1:15 pm 13:15 Sunny 54 12 43 6 67 67 SW 17 28 29.7 1006 10 16.0934 N/A
1:36 pm 13:36 Sunny 52 11 41 5 67 67 SW 18 30 29.7 1006 10 16.0934 N/A
1:55 pm 13:55 Sunny 50 10 43 6 76 76 SW 15 24 29.69 1005 10 16.0934 N/A
2:15 pm 14:15 Mostly Cloudy 50 10 43 6 76 76 SW 12 19 29.69 1005 10 16.0934 N/A
2:36 pm 14:36 Mostly Cloudy 50 10 43 6 76 76 SW 14 22 29.69 1005 10 16.0934 N/A
2:55 pm 14:55 Mostly Cloudy 50 10 43 6 76 76 SSW 14 22 29.69 1005 10 16.0934 N/A
3:15 pm 15:15 Cloudy 50 10 43 6 76 76 SW 13 20 29.71 1006 10 16.0934 N/A
3:35 pm 15:35 Cloudy 50 10 45 7 82 82 SW 14 22 29.71 1006 10 16.0934 N/A
3:55 pm 15:55 Cloudy 50 10 45 7 82 82 SSW 9 15 29.7 1006 10 16.0934 N/A
4:16 pm 16:16 Cloudy 50 10 45 7 82 82 SSW 8 13 29.7 1006 10 16.0934 N/A
4:35 pm 16:35 Cloudy 48 9 45 7 87 87 SSW 8 13 29.7 1006 10 16.0934 N/A
4:55 pm 16:55 Cloudy 48 9 45 7 87 87 SSW 10 17 29.72 1007 10 16.0934 N/A
5:16 pm 17:16 Cloudy 48 9 46 8 94 94 SSW 9 15 29.73 1007 10 16.0934 N/A
5:35 pm 17:35 Cloudy 48 9 46 8 94 94 SSW 8 13 29.71 1006 10 16.0934 N/A
5:56 pm 17:56 Cloudy 46 8 46 8 100 100 SSW 8 13 29.72 1006 10 16.0934 N/A
6:16 pm 18:16 Cloudy 46 8 46 8 100 100 SSW 8 13 29.73 1007 10 16.0934 N/A
6:35 pm 18:35 Cloudy 46 8 46 8 100 100 SSW 8 13 29.74 1007 10 16.0934 N/A
6:55 pm 18:55 Cloudy 46 8 46 8 100 100 S 10 17 29.74 1007 10 16.0934 N/A
7:16 pm 19:16 Cloudy 46 8 46 8 100 100 SSW 9 15 29.72 1006 10 16.0934 N/A
7:35 pm 19:35 Cloudy 46 8 46 8 100 100 SSW 8 13 29.72 1006 10 16.0934 N/A
7:55 pm 19:55 Cloudy 46 8 46 8 100 100 S 8 13 29.72 1006 10 16.0934 N/A
8:15 pm 20:15 Cloudy 46 8 46 8 100 100 SSW 6 9 29.72 1006 10 16.0934 N/A
8:35 pm 20:35 Cloudy 46 8 46 8 100 100 SSW 7 11 29.72 1006 10 16.0934 N/A
8:55 pm 20:55 Cloudy 46 8 46 8 100 100 SSW 6 9 29.72 1006 10 16.0934 N/A
9:16 pm 21:16 Cloudy 46 8 46 8 100 100 S 5 7 29.72 1006 10 16.0934 N/A
9:35 pm 21:35 Cloudy 45 7 45 7 100 100 Calm 29.73 1007 10 16.0934 N/A
9:55 pm 21:55 Cloudy 45 7 45 7 100 100 Calm 29.73 1007 10 16.0934 N/A
10:15 pm 22:15 Cloudy 45 7 45 7 100 100 Calm 29.72 1006 10 16.0934 N/A
10:35 pm 22:35 Cloudy 45 7 45 7 100 100 Calm 29.73 1007 7 11.26538 N/A
10:56 pm 22:56 Cloudy 45 7 45 7 100 100 Calm 29.72 1006 7 11.26538 N/A
11:15 pm 23:15 Cloudy 45 7 45 7 100 100 Calm 29.73 1007 4 6.43736 N/A
11:35 pm 23:35 Cloudy 45 7 45 7 100 100 Calm 29.74 1007 2 3.21868 N/A
11:55 pm 23:55 Cloudy 45 7 45 7 100 100 Calm 29.75 1007 2 3.21868 N/A

Powered by AerisWeather